Meteo Giornale » Osservazioni meteo Francia » Saint-Yan

ore: 16:00 - Osservazioni Meteo Saint-Yan
Lat. 46° 25' N Lon. 4° 1' E Alt. 242 metri s.l.m.

molto_nuvoloso Europe/Paris

19 °C

Molto Nuvoloso

Temp. 24 Ore

12 °C

19 °C

Ovest

9.3 Km/h

Dew point 14 °C

Umidità 72 %

Visibilità  10 Km

Il sole sorge alle ore 07:28

Il sole tramonta alle ore 19:45

Data e Ora Cielo e Fenomeni T °C DP °C Um. % Pres. hPa Vis. km Vento km/h
Oggi h: 16:00 molto_nuvoloso Molto Nuvoloso 19 14 72 1026 10 O 9.3
Oggi h: 15:30 molto_nuvoloso Molto Nuvoloso 19 14 72 1026 10 O 7.4
Oggi h: 15:00 nuvoloso Nuvoloso 18 13 72 1026 10 N 5.5
Oggi h: 14:30 molto_nuvoloso Molto Nuvoloso 17 13 77 1027 10 N 3.7
Oggi h: 14:00 nuvoloso Nuvoloso 17 13 77 1027 10 O/NO 7.4
Oggi h: 13:30 coperto Coperto 15 13 87 1027 10 N 5.5
Oggi h: 12:30 coperto Coperto 14 13 93 1027 7 N 11.1
Oggi h: 12:00 coperto Coperto 14 13 93 1027 10 N/NO 9.3
Oggi h: 11:30 coperto Coperto 15 13 87 1027 10 N 13
Oggi h: 11:00 coperto Coperto 14 13 93 1027 10 N 11.1
Oggi h: 10:30 coperto Coperto 13 13 100 1026 10 N 5.5
Oggi h: 10:00 coperto Coperto 13 13 100 1026 8 NO 9.3
Oggi h: 09:30 coperto Coperto 13 13 100 1026 10 NO 9.3
Oggi h: 09:00 coperto Coperto 13 13 100 1025 10 N 5.5
Oggi h: 08:30 coperto Coperto 13 13 100 1025 7 N 7.4
Oggi h: 08:00 coperto Coperto 13 13 100 1025 6 N 9.3
Oggi h: 07:30 coperto Coperto 13 13 100 1024 6 N/NE 7.4
Oggi h: 07:00 foschia Foschia 13 13 100 1024 5 N/NO 7.4
Oggi h: 06:30 foschia Foschia 13 13 100 1024 4 N/NO 7.4
Oggi h: 06:00 foschia Foschia 13 13 100 1024 4 N/NO 9.3
Oggi h: 05:30 foschia Foschia 13 13 100 1024 5 NO 9.3
Oggi h: 05:00 foschia Foschia 12 12 100 1023 1 N 1.8
Oggi h: 04:30 foschia Foschia 13 13 100 1023 5 N 5.5
Oggi h: 04:00 foschia Foschia 13 13 100 1023 4 N 5.5
Oggi h: 03:30 foschia Foschia 13 12 93 1023 2 N 0
Oggi h: 02:00 foschia Foschia 13 13 100 1023 1 N 3.7
Oggi h: 01:30 foschia Foschia 13 13 100 1023 5 N 5.5
Oggi h: 01:00 foschia Foschia 13 13 100 1023 5 N 5.5
Oggi h: 00:30 molto_nuvoloso Molto Nuvoloso 14 13 93 1023 7 N/NO 7.4
Oggi h: 00:00 molto_nuvoloso Molto Nuvoloso 14 14 100 1023 9 NO 9.3
Ieri h: 23:30 coperto Coperto 15 14 93 1022 10 NO 13
Ieri h: 23:00 coperto Coperto 15 14 93 1022 10 N/NO 9.3
Ieri h: 22:30 coperto Coperto 15 14 93 1022 10 N/NO 11.1
Ieri h: 22:00 molto_nuvoloso Molto Nuvoloso 15 14 93 1022 10 NO 13
Ieri h: 21:30 coperto Coperto 15 14 93 1022 10 NO 11.1
Ieri h: 20:30 coperto_pioggia Pioviggine Leggera 15 14 93 1021 10 NO 9.3
Ieri h: 20:00 coperto_pioggia Pioggia Debole 15 14 93 1021 10 N/NO 7.4
Ieri h: 19:30 coperto_pioggia Pioggia Debole 15 14 93 1021 10 N/NO 11.1
Ieri h: 19:00 coperto_pioggia Pioggia Foschia 15 14 93 1020 4 N/NE 9.3
Ieri h: 18:30 coperto_pioggia Pioggia 15 15 100 1020 6 NO 16.7
Ieri h: 18:00 coperto_pioggia Pioggia Debole 15 14 93 1020 10 NO 16.7